STARLINK-34257 (65225 NORAD) Tracking and Keplerian Element Data

This shows tracking and keplerian element data for the satellite.

Feedback or suggestion? Click here.




ElementValue
Catalog65225
NameSTARLINK-34257
Epoch Orbit2078
Epoch Day353.48752051
Epoch Year2025
RAAN165.0779
Inclination53.1582
Eccentricity0.0001363
Argument of Perigee96.0386
Mean Anonmoly264.077
Mean Motion15.3020825
Decay Rate0.00019639
L11 65225U 25176AD 25353.48752051 .00019639 00000+0 67327-3 0 9996
L22 65225 53.1582 165.0779 0001363 96.0386 264.0770 15.30208250 20785



Live tracking and technical data element details for STARLINK-34257 (NORAD 65225). STARLINK-34257 can be tracked NOW for your location showing map with azimuth and elevation plus other details from your city location.







IsCatalogInMostPopularTable: catalog: 65225, numindb: 4
Update: records affected: 1



GetName: 65225 STARLINK-34257

Hit Count: updated at: Sun, 08 Feb 2026 09:14:01 GMT